When you browse on this site, cookies collect data to enhance your experience and personalize the content and advertising you see.
Visit our Privacy Policy to learn more. By continuing to use the site, you agree to this use of cookies and data.
  • Em Portugal
  • Lista de países
  • Para 7 dias
  • Temperatura da água
  • Mapa do tempo
  • Widgets de tempo
  • user-avatar
    Iniciar Sessão

    Previsão horária em Perovo

    Hoje, 21 Janeiro, Terça-feira

    Tempo Temperatura Precipitação Vento Pressão Humidade
    00:00 -2°C° 0 mm 6 m/s 755 mmHg 96%
    01:00 -3°C° 0 mm 6 m/s 754 mmHg 92%
    02:00 -2°C° 0 mm 5 m/s 754 mmHg 88%
    03:00 -2°C° 0 mm 5 m/s 753 mmHg 85%
    04:00 -2°C° 0 mm 5 m/s 752 mmHg 87%
    05:00 -3°C° 0 mm 6 m/s 751 mmHg 89%
    06:00 -3°C° 0 mm 6 m/s 751 mmHg 92%
    07:00 -3°C° 0 mm 6 m/s 750 mmHg 92%
    08:00 -3°C° 0 mm 6 m/s 749 mmHg 93%
    09:00 -3°C° 0 mm 6 m/s 748 mmHg 93%
    10:00 -2°C° 0.3 mm 7 m/s 747 mmHg 93%
    11:00 -1°C° 0.3 mm 7 m/s 746 mmHg 93%
    12:00 0°C° 0.3 mm 7 m/s 745 mmHg 93%
    13:00 0°C° 0 mm 7 m/s 745 mmHg 92%
    14:00 0°C° 0 mm 7 m/s 744 mmHg 91%
    15:00 0°C° 0 mm 7 m/s 744 mmHg 90%
    16:00 +1°C° 0 mm 6 m/s 743 mmHg 91%
    17:00 +1°C° 0 mm 6 m/s 742 mmHg 91%
    18:00 +1°C° 0 mm 6 m/s 741 mmHg 91%
    19:00 +2°C° 0.9 mm 6 m/s 740 mmHg 92%
    20:00 +2°C° 0.9 mm 6 m/s 739 mmHg 93%
    21:00 +2°C° 0.9 mm 6 m/s 739 mmHg 94%
    22:00 +2°C° 0.9 mm 6 m/s 738 mmHg 93%
    23:00 +2°C° 0.9 mm 7 m/s 737 mmHg 93%

    Amanhã, 22 Janeiro, Quarta-feira

    Tempo Temperatura Precipitação Vento Pressão Humidade
    00:00 +2°C° 0.9 mm 7 m/s 737 mmHg 93%
    01:00 0°C° 0.1 mm 7 m/s 738 mmHg 88%
    02:00 -1°C° 0.1 mm 7 m/s 738 mmHg 84%
    03:00 -2°C° 0.1 mm 7 m/s 739 mmHg 79%
    04:00 -3°C° 0 mm 7 m/s 739 mmHg 78%
    05:00 -3°C° 0 mm 6 m/s 738 mmHg 78%
    06:00 -3°C° 0 mm 6 m/s 738 mmHg 77%
    07:00 -4°C° 0 mm 6 m/s 738 mmHg 78%
    08:00 -4°C° 0 mm 6 m/s 738 mmHg 79%
    09:00 -4°C° 0 mm 6 m/s 738 mmHg 80%
    10:00 -3°C° 0 mm 6 m/s 737 mmHg 79%
    11:00 -3°C° 0 mm 7 m/s 737 mmHg 78%
    12:00 -3°C° 0 mm 7 m/s 737 mmHg 77%
    13:00 -3°C° 0.1 mm 7 m/s 736 mmHg 75%
    14:00 -3°C° 0.1 mm 6 m/s 736 mmHg 74%
    15:00 -2°C° 0.1 mm 6 m/s 736 mmHg 73%
    16:00 -3°C° 0.2 mm 6 m/s 736 mmHg 75%
    17:00 -3°C° 0.2 mm 6 m/s 736 mmHg 77%
    18:00 -2°C° 0.2 mm 5 m/s 736 mmHg 80%
    19:00 -4°C° 0 mm 5 m/s 736 mmHg 79%
    20:00 -4°C° 0 mm 5 m/s 736 mmHg 79%
    21:00 -5°C° 0 mm 5 m/s 736 mmHg 78%
    22:00 -5°C° 0 mm 5 m/s 736 mmHg 78%
    23:00 -5°C° 0 mm 5 m/s 737 mmHg 77%

    Depois de amanhã, 23 Janeiro, Quinta-feira

    Tempo Temperatura Precipitação Vento Pressão Humidade
    00:00 -5°C° 0 mm 6 m/s 737 mmHg 77%
    01:00 -5°C° 0 mm 6 m/s 738 mmHg 78%
    02:00 -5°C° 0 mm 6 m/s 738 mmHg 80%
    03:00 -6°C° 0 mm 6 m/s 739 mmHg 82%
    04:00 -6°C° 0.1 mm 6 m/s 739 mmHg 81%
    05:00 -7°C° 0.1 mm 7 m/s 739 mmHg 79%
    06:00 -8°C° 0.1 mm 7 m/s 740 mmHg 78%
    07:00 -8°C° 0.1 mm 7 m/s 740 mmHg 76%
    08:00 -9°C° 0.1 mm 7 m/s 741 mmHg 73%
    09:00 -9°C° 0.1 mm 7 m/s 742 mmHg 71%
    10:00 -9°C° 0.1 mm 7 m/s 742 mmHg 68%
    11:00 -9°C° 0.1 mm 7 m/s 743 mmHg 65%
    12:00 -9°C° 0.1 mm 7 m/s 743 mmHg 61%
    13:00 -9°C° 0 mm 7 m/s 744 mmHg 60%
    14:00 -9°C° 0 mm 7 m/s 744 mmHg 60%
    15:00 -8°C° 0 mm 6 m/s 744 mmHg 59%
    16:00 -8°C° 0 mm 6 m/s 745 mmHg 62%
    17:00 -8°C° 0 mm 6 m/s 745 mmHg 66%
    18:00 -9°C° 0 mm 6 m/s 746 mmHg 69%
    19:00 -9°C° 0 mm 6 m/s 746 mmHg 69%
    20:00 -8°C° 0 mm 5 m/s 747 mmHg 68%
    21:00 -8°C° 0 mm 5 m/s 748 mmHg 67%
    22:00 -10°C° 0 mm 5 m/s 748 mmHg 69%
    23:00 -9°C° 0 mm 4 m/s 749 mmHg 70%

    24 Janeiro, Sexta-feira

    Tempo Temperatura Precipitação Vento Pressão Humidade
    00:00 -9°C° 0 mm 4 m/s 749 mmHg 71%
    01:00 -9°C° 0 mm 4 m/s 749 mmHg 72%
    02:00 -9°C° 0 mm 4 m/s 749 mmHg 73%
    03:00 -9°C° 0 mm 4 m/s 750 mmHg 73%
    04:00 -9°C° 0 mm 4 m/s 749 mmHg 71%
    05:00 -9°C° 0 mm 4 m/s 749 mmHg 69%
    06:00 -8°C° 0 mm 3 m/s 749 mmHg 67%
    07:00 -8°C° 0 mm 4 m/s 749 mmHg 72%
    08:00 -8°C° 0 mm 4 m/s 748 mmHg 77%
    09:00 -7°C° 0 mm 4 m/s 748 mmHg 82%
    10:00 -7°C° 0.1 mm 4 m/s 748 mmHg 84%
    11:00 -6°C° 0.1 mm 5 m/s 747 mmHg 86%
    12:00 -5°C° 0.1 mm 5 m/s 747 mmHg 87%
    13:00 -5°C° 0 mm 5 m/s 746 mmHg 87%
    14:00 -4°C° 0 mm 5 m/s 746 mmHg 87%
    15:00 -4°C° 0 mm 5 m/s 745 mmHg 87%
    16:00 -4°C° 0.1 mm 5 m/s 745 mmHg 89%
    17:00 -4°C° 0.1 mm 5 m/s 745 mmHg 91%
    18:00 -2°C° 0.1 mm 5 m/s 745 mmHg 93%
    19:00 -2°C° 0.1 mm 5 m/s 745 mmHg 92%
    20:00 -1°C° 0.1 mm 4 m/s 746 mmHg 92%
    21:00 -1°C° 0.1 mm 4 m/s 746 mmHg 91%
    22:00 -1°C° 0 mm 4 m/s 746 mmHg 91%
    23:00 -1°C° 0 mm 4 m/s 746 mmHg 92%

    25 Janeiro, Sábado

    Tempo Temperatura Precipitação Vento Pressão Humidade
    00:00 0°C° 0 mm 3 m/s 746 mmHg 92%
    01:00 -1°C° 0 mm 4 m/s 746 mmHg 93%
    02:00 -1°C° 0 mm 4 m/s 746 mmHg 93%
    03:00 0°C° 0 mm 5 m/s 746 mmHg 94%
    04:00 0°C° 0 mm 5 m/s 746 mmHg 95%
    05:00 0°C° 0 mm 5 m/s 746 mmHg 95%
    06:00 -1°C° 0 mm 6 m/s 745 mmHg 96%
    07:00 0°C° 0 mm 5 m/s 745 mmHg 95%
    08:00 0°C° 0 mm 5 m/s 745 mmHg 94%
    09:00 0°C° 0 mm 5 m/s 745 mmHg 93%
    10:00 0°C° 0 mm 5 m/s 745 mmHg 92%
    11:00 0°C° 0 mm 5 m/s 745 mmHg 91%
    12:00 0°C° 0 mm 5 m/s 745 mmHg 90%
    13:00 0°C° 0 mm 5 m/s 745 mmHg 90%
    14:00 0°C° 0 mm 5 m/s 746 mmHg 91%
    15:00 0°C° 0 mm 5 m/s 746 mmHg 92%
    16:00 0°C° 0 mm 5 m/s 746 mmHg 92%
    17:00 0°C° 0 mm 5 m/s 746 mmHg 93%
    18:00 0°C° 0 mm 5 m/s 747 mmHg 93%
    19:00 -1°C° 0 mm 5 m/s 747 mmHg 94%
    20:00 -1°C° 0 mm 5 m/s 747 mmHg 95%
    21:00 -1°C° 0 mm 4 m/s 747 mmHg 96%
    22:00 -1°C° 0 mm 4 m/s 747 mmHg 96%
    23:00 -1°C° 0 mm 4 m/s 748 mmHg 96%

    26 Janeiro, Domingo

    Tempo Temperatura Precipitação Vento Pressão Humidade
    00:00 0°C° 0 mm 3 m/s 748 mmHg 96%
    01:00 0°C° 0 mm 3 m/s 748 mmHg 96%
    02:00 0°C° 0 mm 3 m/s 748 mmHg 96%
    03:00 0°C° 0 mm 3 m/s 748 mmHg 96%
    04:00 0°C° 0 mm 3 m/s 748 mmHg 96%
    05:00 -1°C° 0 mm 2 m/s 748 mmHg 96%
    06:00 -1°C° 0 mm 2 m/s 748 mmHg 96%
    07:00 -1°C° 0 mm 2 m/s 748 mmHg 96%
    08:00 -1°C° 0 mm 2 m/s 749 mmHg 95%
    09:00 +1°C° 0 mm 2 m/s 749 mmHg 95%
    10:00 +1°C° 0 mm 2 m/s 749 mmHg 92%
    11:00 +2°C° 0 mm 1 m/s 749 mmHg 90%
    12:00 +3°C° 0 mm 1 m/s 750 mmHg 87%
    13:00 +3°C° 0 mm 1 m/s 749 mmHg 87%
    14:00 +3°C° 0 mm 1 m/s 749 mmHg 87%
    15:00 +3°C° 0 mm 1 m/s 749 mmHg 87%
    16:00 +2°C° 0 mm 1 m/s 750 mmHg 89%
    17:00 +2°C° 0 mm 1 m/s 750 mmHg 91%
    18:00 +2°C° 0 mm 1 m/s 750 mmHg 93%
    19:00 +1°C° 0 mm 2 m/s 750 mmHg 94%
    20:00 +1°C° 0 mm 2 m/s 750 mmHg 96%
    21:00 +1°C° 0 mm 2 m/s 750 mmHg 97%
    22:00 +1°C° 0 mm 2 m/s 750 mmHg 97%
    23:00 0°C° 0 mm 3 m/s 750 mmHg 97%
    Mostrar mais